Regional Weather Roundup
Issued by NWS Bismarck, ND

Home | Current Version | Previous Version | Text Only | Print | Product List | Glossary On
Versions: 1 2 3 4 5 6 7 8 9 10 11 12 13 14 15 16 17 18 19 20 21 22 23 24 25 26 27 28 29 30 31 32 33 34 35 36 37 38 39 40 41 42 43 44 45 46 47 48 49 50
000
ASUS43 KBIS 010502
RWRBIS

NWR BROADCAST TEXT
NATIONAL WEATHER SERVICE BISMARCK ND
1200 AM CDT SAT OCT 01 2016

NOTE: "FAIR" INDICATES FEW OR NO CLOUDS BELOW 12,000 FEET WITH NO
SIGNIFICANT WEATHER AND/OR OBSTRUCTIONS TO VISIBILITY.


CITY           SKY/WX    TMP DP  RH WIND       PRES   REMARKS
WILLISTON      CLEAR     56  48  74 CALM      29.98S
MINOT          CLEAR     56  48  74 SE10      30.04F
MINOT AFB      CLEAR     54  48  81 SE9       30.04R
BISMARCK       PTCLDY    61  46  57 SE9       30.07S
DICKINSON      CLEAR     52  45  77 SE9       29.99F
GARRISON         N/A     56  48  74 SE8       30.04S
HETTINGER ARPT CLEAR     55  46  71 SE8       30.02F
JAMESTOWN      MOCLDY    57  49  74 SE13      30.13F
BEACH          FAIR      54  48  82 SE3       30.02F
CARRINGTON     FAIR      57  48  72 SE12      30.15S
HAZEN          FAIR      52  45  76 NE5       30.05F
RUGBY          FAIR      57  50  77 SE10G16   30.09S
STANLEY        FAIR      54  54 100 SE12      30.05R
WATFORD CITY   FAIR      54  48  82 SE7       29.99S
$$

CITY           SKY/WX    TMP DP  RH WIND       PRES   REMARKS
GRAND FORKS    CLOUDY    57  49  74 SE10      30.17F
GRAND FORKS AF CLOUDY    56  50  81 S7        30.17F
DEVILS LAKE    CLOUDY    59  47  64 SE15      30.14S
FARGO          CLOUDY    58  48  69 SE12      30.17F
CANDO          CLOUDY    57  50  77 SE13      30.14F
CAVALIER       FAIR      57  50  77 SE8       30.16F
GRAFTON        FAIR      55  54  94 SE9       30.19S
GWINNER        FAIR      54  48  82 SE9       30.17S
LANGDON        FAIR      59  52  77 S16       30.15F
ROLLA            N/A     55  48  76 S9        30.13S
WALHALLA       FAIR      57  55  94 SE9       30.16S
$$

CITY           SKY/WX    TMP DP  RH WIND       PRES   REMARKS
ABERDEEN       PTCLDY    55  45  68 SE7       30.14S
MOBRIDGE       PTCLDY    63  43  48 SE17      30.04S
BUFFALO          N/A     57  46  66 CALM      29.95S
RAPID CITY     CLEAR     58  48  69 SE6       30.03S
GLASGOW        CLEAR     60  53  77 E9        29.94S
SIDNEY         CLEAR     55  49  80 CALM      29.97S
WOLF POINT     CLEAR     56  51  84 E3        29.96S
GLENDIVE       CLEAR     58  52  80 CALM      29.98S
MILES CITY     CLEAR     61  52  72 W6        29.96S
BAKER          CLEAR     53  47  79 E7        30.00F
$$

CITY           SKY/WX    TMP DP  RH WIND       PRES   REMARKS
BILLINGS       MOCLDY    67  46  47 SW10      30.02S
GREAT FALLS    PTCLDY    64  41  42 S9        29.96S
$$





USA.gov is the U.S. government's official web portal to all federal, state and local government web resources and services.